Weather History for Holland, MI

Change the Weather History Date:

Tuesday, August 27, 2013

  Actual Average Record
Temperature  
Mean Temperature 83 °F 70 °F  
Max Temperature 91 °F 80 °F 95 °F (1973)
Min Temperature 74 °F 59 °F 39 °F (1968)
Degree Days  
Heating Degree Days 0 0  
Month to date heating degree days 11 0  
Since 1 June heating degree days 53 54  
Since 1 July heating degree days 19 6  
Cooling Degree Days 18 5  
Month to date cooling degree days 140 174  
Year to date cooling degree days 665 597  
Since 1 June cooling degree days 575 555  
Growing Degree Days 32 (Base 50)    
Moisture  
Dew Point 71 °F    
Average Humidity 68    
Maximum Humidity 87    
Minimum Humidity 49    
Precipitation  
Precipitation 0.01 in 0.12 in 1.00 in (1986)
Month to date precipitation 1.57 3.10  
Year to date precipitation 27.76 22.74  
Sea Level Pressure  
Sea Level Pressure 29.92 in    
Wind  
Wind Speed 13 mph (SW)    
Max Wind Speed 23 mph    
Max Gust Speed 32 mph    
Visibility 9 miles    
Events Rain    
T = Trace of Precipitation, MM = Missing Value Source: NWS Daily Summary

Daily Weather History Graph

Daily Weather History Graph

Search for Another Location

Airport:

Trip Planner

Search our weather history database for the weather conditions in past years. The results will help you decide how hot, cold, wet, or windy it might be!

Date:

Astronomy

Aug. 27, 2013 Rise Set
Actual Time 7:04 AM EDT 8:26 PM EDT
Civil Twilight 6:34 AM EDT 8:56 PM EDT
Nautical Twilight 5:59 AM EDT 9:31 PM EDT
Astronomical Twilight 5:21 AM EDT 10:08 PM EDT
Moon No Moon Rise 2:11 PM EDT (8/27)
Length of Visible Light 14h 21m
Length of Day
13h 22m
Waning Gibbous, 57% of the Moon is Illuminated
Aug 27
Waning Gibbous
Aug 28
Last Quarter
Sep 5
New
Sep 12
First Quarter
Sep 19
Full

Hourly Weather History & Observations

Time (EDT) Temp. Heat Index Dew Point Humidity Pressure Visibility Wind Dir Wind Speed Gust Speed Precip Events Conditions
12:53 AM 79.0 °F - 71.1 °F 77% 29.99 in 10.0 mi WSW 11.5 mph - N/A   Partly Cloudy
1:53 AM 78.1 °F - 71.1 °F 79% 29.98 in 10.0 mi SW 13.8 mph 20.7 mph N/A   Mostly Cloudy
2:53 AM 78.1 °F - 71.1 °F 79% 29.96 in 10.0 mi WSW 12.7 mph - N/A   Clear
3:53 AM 79.0 °F - 71.1 °F 77% 29.95 in 10.0 mi WSW 15.0 mph 23.0 mph N/A   Scattered Clouds
4:53 AM 78.1 °F - 71.1 °F 79% 29.94 in 10.0 mi WSW 12.7 mph 20.7 mph N/A   Mostly Cloudy
5:53 AM 77.0 °F - 71.1 °F 82% 29.96 in 9.0 mi West 6.9 mph - N/A   Mostly Cloudy
6:53 AM 75.0 °F - 72.0 °F 90% 29.99 in 6.0 mi NNW 3.5 mph - 0.00 in Rain Light Rain
7:53 AM 73.9 °F - 72.0 °F 93% 29.97 in 3.0 mi SSE 3.5 mph - 0.00 in   Partly Cloudy
8:06 AM 73.4 °F - 71.6 °F 94% 29.99 in 2.5 mi SSE 3.5 mph - N/A   Clear
8:20 AM 75.2 °F - 71.6 °F 89% 29.99 in 3.0 mi Calm Calm - N/A   Clear
8:53 AM 75.0 °F - 72.0 °F 90% 29.96 in 3.0 mi SE 4.6 mph - N/A   Clear
9:53 AM 80.1 °F 84.2 °F 73.0 °F 79% 29.95 in 8.0 mi South 9.2 mph - N/A   Clear
10:53 AM 80.1 °F 84.2 °F 73.0 °F 79% 29.95 in 8.0 mi South 10.4 mph - N/A   Clear
11:53 AM 82.0 °F 86.7 °F 72.0 °F 71% 29.94 in 10.0 mi SSW 11.5 mph - N/A   Clear
12:53 PM 81.0 °F 85.2 °F 72.0 °F 74% 29.94 in 10.0 mi SW 12.7 mph - N/A   Clear
1:53 PM 86.0 °F 91.5 °F 71.1 °F 61% 29.92 in 10.0 mi SW 16.1 mph 21.9 mph N/A   Clear
2:53 PM 88.0 °F 93.8 °F 71.1 °F 57% 29.90 in 10.0 mi SSW 15.0 mph - N/A   Clear
3:53 PM 89.1 °F 95.0 °F 71.1 °F 55% 29.88 in 10.0 mi SW 17.3 mph - N/A   Clear
4:53 PM 90.0 °F 96.4 °F 71.1 °F 54% 29.86 in 10.0 mi SW 17.3 mph 25.3 mph N/A   Clear
5:53 PM 91.0 °F 95.6 °F 69.1 °F 48% 29.84 in 10.0 mi SSW 17.3 mph 27.6 mph N/A   Clear
6:53 PM 88.0 °F 91.4 °F 68.0 °F 51% 29.83 in 10.0 mi SSW 15.0 mph 25.3 mph N/A   Mostly Cloudy
7:53 PM 87.1 °F 91.3 °F 69.1 °F 55% 29.83 in 10.0 mi SW 16.1 mph - N/A   Mostly Cloudy
8:53 PM 86.0 °F 90.7 °F 70.0 °F 59% 29.83 in 10.0 mi SW 19.6 mph 26.5 mph N/A   Overcast
9:53 PM 82.9 °F 87.5 °F 71.1 °F 67% 29.83 in 10.0 mi SW 20.7 mph 26.5 mph N/A   Clear
10:53 PM 82.9 °F 87.5 °F 71.1 °F 67% 29.81 in 10.0 mi WSW 18.4 mph 25.3 mph N/A   Overcast
11:53 PM 82.0 °F 86.3 °F 71.1 °F 69% 29.82 in 10.0 mi SW 17.3 mph 27.6 mph N/A   Mostly Cloudy